TimeCDT,TemperatureF,Dew PointF,Humidity,Sea Level PressureIn,VisibilityMPH,Wind Direction,Wind SpeedMPH,Gust SpeedMPH,PrecipitationIn,Events,Conditions,WindDirDegrees,DateUTC
12:05 AM,73.4,68.0,83,29.92,10.0,SSE,13.8,-,N/A,,Overcast,150,2013-06-20 05:05:00
12:25 AM,75.2,69.8,83,29.92,10.0,SSE,17.3,21.9,N/A,,Overcast,150,2013-06-20 05:25:00
12:45 AM,75.2,69.8,83,29.92,10.0,SSE,12.7,20.7,N/A,,Mostly Cloudy,150,2013-06-20 05:45:00
1:05 AM,73.4,69.8,88,29.91,10.0,SE,16.1,20.7,N/A,,Mostly Cloudy,140,2013-06-20 06:05:00
1:25 AM,73.4,69.8,88,29.91,10.0,SSE,15.0,20.7,N/A,,Clear,150,2013-06-20 06:25:00
1:45 AM,73.4,69.8,88,29.91,10.0,SSE,13.8,-,N/A,,Clear,150,2013-06-20 06:45:00
2:05 AM,73.4,69.8,88,29.90,10.0,SSE,16.1,-,N/A,,Clear,160,2013-06-20 07:05:00
2:25 AM,73.4,69.8,88,29.91,10.0,SSE,11.5,-,N/A,,Clear,160,2013-06-20 07:25:00
2:45 AM,73.4,69.8,88,29.90,9.0,SSE,12.7,19.6,N/A,,Clear,160,2013-06-20 07:45:00
3:05 AM,73.4,69.8,88,29.89,10.0,SSE,13.8,19.6,N/A,,Clear,160,2013-06-20 08:05:00
3:25 AM,73.4,69.8,88,29.89,10.0,SSE,15.0,20.7,N/A,,Clear,160,2013-06-20 08:25:00
3:45 AM,71.6,69.8,94,29.90,10.0,SSE,12.7,-,N/A,,Clear,160,2013-06-20 08:45:00
4:05 AM,71.6,69.8,94,29.90,10.0,SSE,10.4,-,N/A,,Clear,160,2013-06-20 09:05:00
4:25 AM,71.6,69.8,94,29.89,9.0,SSE,11.5,-,N/A,,Clear,160,2013-06-20 09:25:00
4:45 AM,71.6,69.8,94,29.89,9.0,SSE,12.7,-,N/A,,Clear,160,2013-06-20 09:45:00
5:05 AM,71.6,69.8,94,29.90,9.0,SSE,10.4,-,N/A,,Clear,160,2013-06-20 10:05:00
5:25 AM,71.6,69.8,94,29.90,9.0,South,10.4,17.3,N/A,,Clear,170,2013-06-20 10:25:00
5:45 AM,71.6,69.8,94,29.91,9.0,South,12.7,-,N/A,,Clear,170,2013-06-20 10:45:00
6:05 AM,71.6,68.0,88,29.91,8.0,South,10.4,-,N/A,,Clear,170,2013-06-20 11:05:00
6:25 AM,69.8,68.0,94,29.91,7.0,South,10.4,-,N/A,,Clear,170,2013-06-20 11:25:00
6:45 AM,69.8,69.8,100,29.92,5.0,South,9.2,-,N/A,,Clear,170,2013-06-20 11:45:00
7:05 AM,71.6,69.8,94,29.92,6.0,South,9.2,-,N/A,,Clear,170,2013-06-20 12:05:00
7:25 AM,71.6,69.8,94,29.93,7.0,South,10.4,-,N/A,,Clear,170,2013-06-20 12:25:00
7:45 AM,71.6,69.8,94,29.93,8.0,South,8.1,-,N/A,,Clear,170,2013-06-20 12:45:00
8:05 AM,73.4,68.0,83,29.93,10.0,South,12.7,-,N/A,,Clear,170,2013-06-20 13:05:00
8:25 AM,73.4,68.0,83,29.94,10.0,South,10.4,-,N/A,,Clear,180,2013-06-20 13:25:00
8:45 AM,77.0,68.0,74,29.94,10.0,SSW,10.4,16.1,N/A,,Clear,200,2013-06-20 13:45:00
9:05 AM,77.0,66.2,69,29.94,10.0,South,13.8,-,N/A,,Clear,190,2013-06-20 14:05:00
9:25 AM,80.6,66.2,61,29.93,10.0,South,18.4,24.2,N/A,,Clear,190,2013-06-20 14:25:00
9:45 AM,82.4,66.2,58,29.93,10.0,South,18.4,25.3,N/A,,Clear,190,2013-06-20 14:45:00
10:05 AM,84.2,66.2,55,29.93,10.0,South,20.7,25.3,N/A,,Clear,190,2013-06-20 15:05:00
10:25 AM,86.0,66.2,51,29.93,10.0,South,17.3,25.3,N/A,,Clear,190,2013-06-20 15:25:00
10:45 AM,86.0,66.2,51,29.92,9.0,South,19.6,25.3,N/A,,Clear,190,2013-06-20 15:45:00
11:05 AM,80.6,68.0,65,29.91,10.0,South,16.1,19.6,N/A,,Clear,180,2013-06-20 16:05:00
11:25 AM,86.0,66.2,51,29.91,10.0,South,20.7,28.8,N/A,,Clear,180,2013-06-20 16:25:00
11:45 AM,89.6,66.2,46,29.90,10.0,South,25.3,31.1,N/A,,Clear,180,2013-06-20 16:45:00
12:05 PM,91.4,66.2,43,29.89,10.0,South,23.0,32.2,N/A,,Clear,190,2013-06-20 17:05:00
12:25 PM,93.2,64.4,38,29.88,10.0,South,26.5,34.5,N/A,,Clear,190,2013-06-20 17:25:00
12:45 PM,93.2,64.4,38,29.88,10.0,South,24.2,31.1,N/A,,Clear,180,2013-06-20 17:45:00
1:05 PM,93.2,66.2,41,29.87,10.0,South,25.3,33.4,N/A,,Clear,180,2013-06-20 18:05:00
1:25 PM,93.2,64.4,38,29.87,10.0,South,25.3,34.5,N/A,,Clear,180,2013-06-20 18:25:00
1:45 PM,95.0,64.4,36,29.86,10.0,South,24.2,36.8,N/A,,Clear,190,2013-06-20 18:45:00
2:05 PM,95.0,64.4,36,29.85,10.0,South,27.6,39.1,N/A,,Clear,180,2013-06-20 19:05:00
2:25 PM,95.0,64.4,36,29.84,10.0,South,32.2,42.6,N/A,,Clear,180,2013-06-20 19:25:00
2:45 PM,96.8,64.4,34,29.84,10.0,South,24.2,41.4,N/A,,Clear,180,2013-06-20 19:45:00
3:05 PM,96.8,64.4,34,29.83,10.0,South,21.9,39.1,N/A,,Clear,190,2013-06-20 20:05:00
3:25 PM,98.6,62.6,30,29.83,10.0,South,29.9,36.8,N/A,,Clear,190,2013-06-20 20:25:00
3:45 PM,98.6,64.4,32,29.83,10.0,South,27.6,41.4,N/A,,Clear,180,2013-06-20 20:45:00
4:05 PM,98.6,62.6,30,29.84,10.0,South,28.8,40.3,N/A,,Clear,190,2013-06-20 21:05:00
4:25 PM,96.8,64.4,34,29.84,10.0,South,27.6,38.0,N/A,,Clear,190,2013-06-20 21:25:00
4:45 PM,98.6,62.6,30,29.84,10.0,SSW,26.5,39.1,N/A,,Clear,200,2013-06-20 21:45:00
5:05 PM,96.8,64.4,34,29.83,10.0,South,24.2,34.5,N/A,,Clear,190,2013-06-20 22:05:00
5:25 PM,96.8,62.6,32,29.83,10.0,South,25.3,36.8,N/A,,Clear,180,2013-06-20 22:25:00
5:45 PM,95.0,64.4,36,29.83,10.0,South,21.9,38.0,N/A,,Clear,180,2013-06-20 22:45:00
6:05 PM,95.0,64.4,36,29.83,10.0,South,20.7,35.7,N/A,,Clear,180,2013-06-20 23:05:00
6:25 PM,95.0,64.4,36,29.83,10.0,South,25.3,34.5,N/A,,Clear,170,2013-06-20 23:25:00
6:45 PM,93.2,64.4,38,29.83,10.0,South,23.0,34.5,N/A,,Clear,170,2013-06-20 23:45:00
7:05 PM,93.2,64.4,38,29.84,10.0,South,25.3,33.4,N/A,,Clear,170,2013-06-21 00:05:00
7:25 PM,91.4,66.2,43,29.84,10.0,South,25.3,34.5,N/A,,Clear,170,2013-06-21 00:25:00
7:45 PM,91.4,66.2,43,29.85,10.0,South,21.9,29.9,N/A,,Clear,170,2013-06-21 00:45:00
8:05 PM,89.6,66.2,46,29.86,10.0,South,21.9,31.1,N/A,,Clear,170,2013-06-21 01:05:00
8:25 PM,87.8,66.2,49,29.86,10.0,South,19.6,31.1,N/A,,Clear,170,2013-06-21 01:25:00
8:45 PM,86.0,68.0,55,29.87,10.0,South,18.4,27.6,N/A,,Clear,170,2013-06-21 01:45:00
9:05 PM,86.0,68.0,55,29.88,10.0,South,23.0,28.8,N/A,,Clear,170,2013-06-21 02:05:00
9:25 PM,84.2,66.2,55,29.88,10.0,South,20.7,28.8,N/A,,Clear,170,2013-06-21 02:25:00
9:45 PM,84.2,68.0,58,29.89,10.0,SSE,19.6,26.5,N/A,,Clear,160,2013-06-21 02:45:00
10:05 PM,84.2,68.0,58,29.89,10.0,SSE,18.4,-,N/A,,Clear,160,2013-06-21 03:05:00
10:25 PM,82.4,68.0,62,29.90,10.0,South,17.3,23.0,N/A,,Clear,170,2013-06-21 03:25:00
10:45 PM,82.4,68.0,62,29.90,10.0,South,16.1,23.0,N/A,,Clear,170,2013-06-21 03:45:00
11:05 PM,80.6,68.0,65,29.91,10.0,South,15.0,21.9,N/A,,Clear,170,2013-06-21 04:05:00
11:25 PM,80.6,68.0,65,29.91,10.0,South,16.1,-,N/A,,Clear,170,2013-06-21 04:25:00
11:45 PM,80.6,68.0,65,29.90,10.0,South,18.4,25.3,N/A,,Clear,180,2013-06-21 04:45:00